TimeAST,TemperatureF,Dew PointF,Humidity,Sea Level PressureIn,VisibilityMPH,Wind Direction,Wind SpeedMPH,Gust SpeedMPH,PrecipitationIn,Events,Conditions,WindDirDegrees,DateUTC
12:00 AM,82.4,71.6,70,29.89,6.2,ESE,8.1,-,N/A,,Partly Cloudy,120,2012-10-25 04:00:00
1:00 AM,82.4,71.6,70,29.89,6.2,ESE,9.2,-,N/A,,Partly Cloudy,120,2012-10-25 05:00:00
2:00 AM,82,73,67,29.88,19,SE,10.4,,,,,130,2012-10-25 06:00:00
2:00 AM,82.4,73.4,74,29.86,6.2,ESE,9.2,-,N/A,,Partly Cloudy,120,2012-10-25 06:00:00
3:00 AM,82.4,71.6,70,29.86,6.2,ESE,9.2,-,N/A,,Partly Cloudy,120,2012-10-25 07:00:00
4:00 AM,82.4,71.6,70,29.86,6.2,ESE,9.2,-,N/A,,Partly Cloudy,120,2012-10-25 08:00:00
5:00 AM,81,72,67,29.85,19,ESE,8.1,,,,Scattered Clouds,120,2012-10-25 09:00:00
5:00 AM,80.6,71.6,74,29.83,6.2,ESE,8.1,-,N/A,,Partly Cloudy,120,2012-10-25 09:00:00
6:00 AM,80.6,71.6,74,29.86,6.2,ESE,8.1,-,N/A,,Partly Cloudy,120,2012-10-25 10:00:00
7:00 AM,82.4,71.6,70,29.86,6.2,ESE,9.2,-,N/A,,Partly Cloudy,120,2012-10-25 11:00:00
8:00 AM,83,72,62,29.88,37,ESE,9.2,,,,Scattered Clouds,120,2012-10-25 12:00:00
9:00 AM,82.4,71.6,70,29.89,6.2,SE,12.7,-,N/A,,Partly Cloudy,130,2012-10-25 13:00:00
10:00 AM,84.2,71.6,66,29.89,6.2,SE,17.3,-,N/A,,Partly Cloudy,130,2012-10-25 14:00:00
11:00 AM,85,73,61,29.90,40,SE,13.8,,,,Scattered Clouds,140,2012-10-25 15:00:00
11:00 AM,84.2,73.4,70,29.89,6.2,SE,13.8,-,N/A,,Partly Cloudy,140,2012-10-25 15:00:00
12:00 PM,84.2,75.2,74,29.86,6.2,SE,11.5,-,N/A,,Unknown,130,2012-10-25 16:00:00
1:00 PM,84.2,73.4,70,29.86,6.2,SE,15.0,-,N/A,,Partly Cloudy,140,2012-10-25 17:00:00
2:00 PM,85,73,60,29.84,44,SSE,18.4,,,,Scattered Clouds,150,2012-10-25 18:00:00
3:00 PM,84.2,73.4,70,29.86,6.2,SE,13.8,-,N/A,,Partly Cloudy,140,2012-10-25 19:00:00
4:00 PM,84.2,75.2,74,29.86,6.2,SE,10.4,-,N/A,,Scattered Clouds,140,2012-10-25 20:00:00
5:00 PM,83,75,70,29.88,44,SSE,11.5,,,,Scattered Clouds,150,2012-10-25 21:00:00
5:00 PM,82.4,75.2,79,29.89,6.2,SE,10.4,-,N/A,,Partly Cloudy,140,2012-10-25 21:00:00
6:00 PM,82.4,75.2,79,29.86,6.2,SE,8.1,-,N/A,,Partly Cloudy,140,2012-10-25 22:00:00
7:00 PM,82.4,75.2,79,29.86,6.2,SE,6.9,-,N/A,,Partly Cloudy,130,2012-10-25 23:00:00
8:00 PM,82,75,73,29.89,37,ESE,6.9,,,,Scattered Clouds,120,2012-10-26 00:00:00
8:00 PM,82.4,75.2,79,29.89,6.2,ESE,6.9,-,N/A,,Partly Cloudy,120,2012-10-26 00:00:00
9:00 PM,82.4,75.2,79,29.89,6.2,ESE,9.2,-,N/A,,Partly Cloudy,120,2012-10-26 01:00:00
10:00 PM,82.4,75.2,79,29.89,6.2,SE,11.5,-,N/A,,Partly Cloudy,130,2012-10-26 02:00:00
11:00 PM,82,75,73,29.92,37,SSE,6.9,,,,Scattered Clouds,150,2012-10-26 03:00:00
11:00 PM,82.4,75.2,79,29.92,6.2,SSE,6.9,-,N/A,,Partly Cloudy,150,2012-10-26 03:00:00